Year,Month,Day,Hour,Minute,Value (Times are PST for temperature in C)
2007,06,25,00,00,9.40
2007,06,25,00,01,9.40
2007,06,25,00,02,9.40
2007,06,25,00,03,9.40
2007,06,25,00,04,9.40
2007,06,25,00,05,9.40
2007,06,25,00,06,9.40
2007,06,25,00,07,9.40
2007,06,25,00,08,9.40
2007,06,25,00,09,9.40
2007,06,25,00,10,9.40
2007,06,25,00,11,9.40
2007,06,25,00,12,9.40
2007,06,25,00,13,9.40
2007,06,25,00,14,9.40
2007,06,25,00,15,9.40
2007,06,25,00,16,9.40
2007,06,25,00,17,9.40
2007,06,25,00,18,9.40
2007,06,25,00,19,9.40
2007,06,25,00,20,9.40
2007,06,25,00,21,9.40
2007,06,25,00,22,9.40
2007,06,25,00,23,9.30
2007,06,25,00,24,9.30
2007,06,25,00,25,9.30
2007,06,25,00,26,9.30
2007,06,25,00,27,9.30
2007,06,25,00,28,9.30
2007,06,25,00,29,9.30
2007,06,25,00,30,9.30
2007,06,25,00,31,9.30
2007,06,25,00,32,9.30
2007,06,25,00,33,9.30
2007,06,25,00,34,9.30
2007,06,25,00,35,9.30
2007,06,25,00,36,9.30
2007,06,25,00,37,9.30
2007,06,25,00,38,9.30
2007,06,25,00,39,9.30
2007,06,25,00,40,9.30
2007,06,25,00,41,9.30
2007,06,25,00,42,9.30
2007,06,25,00,43,9.20
2007,06,25,00,44,9.20
2007,06,25,00,45,9.30
2007,06,25,00,46,9.30
2007,06,25,00,47,9.30
2007,06,25,00,48,9.30
2007,06,25,00,49,9.30
2007,06,25,00,50,9.30
2007,06,25,00,51,9.30
2007,06,25,00,52,9.30
2007,06,25,00,53,9.30
2007,06,25,00,54,9.30
2007,06,25,00,55,9.30
2007,06,25,00,56,9.30
2007,06,25,00,57,9.30
2007,06,25,00,58,9.30
2007,06,25,00,59,9.30
2007,06,25,01,00,9.20
2007,06,25,01,01,9.30
2007,06,25,01,02,9.30
2007,06,25,01,03,9.30
2007,06,25,01,04,9.30
2007,06,25,01,05,9.30
2007,06,25,01,06,9.30
2007,06,25,01,07,9.30
2007,06,25,01,08,9.30
2007,06,25,01,09,9.40
2007,06,25,01,10,9.40
2007,06,25,01,11,9.40
2007,06,25,01,12,9.40
2007,06,25,01,13,9.40
2007,06,25,01,14,9.50
2007,06,25,01,15,9.50
2007,06,25,01,16,9.50
2007,06,25,01,17,9.50
2007,06,25,01,18,9.50
2007,06,25,01,19,9.50
2007,06,25,01,20,9.60
2007,06,25,01,21,9.60
2007,06,25,01,22,9.60
2007,06,25,01,23,9.60
2007,06,25,01,24,9.60
2007,06,25,01,25,9.60
2007,06,25,01,26,9.60
2007,06,25,01,27,9.60
2007,06,25,01,28,9.60
2007,06,25,01,29,9.50
2007,06,25,01,30,9.50
2007,06,25,01,31,9.50
2007,06,25,01,32,9.50
2007,06,25,01,33,9.50
2007,06,25,01,34,9.50
2007,06,25,01,35,9.50
2007,06,25,01,36,9.50
2007,06,25,01,37,9.50
2007,06,25,01,38,9.50
2007,06,25,01,39,9.50
2007,06,25,01,40,9.50
2007,06,25,01,41,9.50
2007,06,25,01,42,9.50
2007,06,25,01,43,9.50
2007,06,25,01,44,9.50
2007,06,25,01,45,9.50
2007,06,25,01,46,9.50
2007,06,25,01,47,9.50
2007,06,25,01,48,9.50
2007,06,25,01,49,9.50
2007,06,25,01,50,9.50
2007,06,25,01,51,9.50
2007,06,25,01,52,9.50
2007,06,25,01,53,9.50
2007,06,25,01,54,9.50
2007,06,25,01,55,9.50
2007,06,25,01,56,9.60
2007,06,25,01,57,9.60
2007,06,25,01,58,9.60
2007,06,25,01,59,9.60
2007,06,25,02,00,9.70
2007,06,25,02,01,9.70
2007,06,25,02,02,9.70
2007,06,25,02,03,9.70
2007,06,25,02,04,9.70
2007,06,25,02,05,9.70
2007,06,25,02,06,9.70
2007,06,25,02,07,9.70
2007,06,25,02,08,9.70
2007,06,25,02,09,9.70
2007,06,25,02,10,9.70
2007,06,25,02,11,9.70
2007,06,25,02,12,9.70
2007,06,25,02,13,9.70
2007,06,25,02,14,9.70
2007,06,25,02,15,9.70
2007,06,25,02,16,9.70
2007,06,25,02,17,9.70
2007,06,25,02,18,9.70
2007,06,25,02,19,9.70
2007,06,25,02,20,9.70
2007,06,25,02,21,9.70
2007,06,25,02,22,9.70
2007,06,25,02,23,9.70
2007,06,25,02,24,9.70
2007,06,25,02,25,9.70
2007,06,25,02,26,9.70
2007,06,25,02,27,9.70
2007,06,25,02,28,9.70
2007,06,25,02,29,9.70
2007,06,25,02,30,9.70
2007,06,25,02,31,9.70
2007,06,25,02,32,9.70
2007,06,25,02,33,9.70
2007,06,25,02,34,9.70
2007,06,25,02,35,9.70
2007,06,25,02,36,9.60
2007,06,25,02,37,9.60
2007,06,25,02,38,9.60
2007,06,25,02,39,9.60
2007,06,25,02,40,9.60
2007,06,25,02,41,9.60
2007,06,25,02,42,9.60
2007,06,25,02,43,9.50
2007,06,25,02,44,9.50
2007,06,25,02,45,9.50
2007,06,25,02,46,9.50
2007,06,25,02,47,9.40
2007,06,25,02,48,9.40
2007,06,25,02,49,9.40
2007,06,25,02,50,9.40
2007,06,25,02,51,9.40
2007,06,25,02,52,9.40
2007,06,25,02,53,9.30
2007,06,25,02,54,9.30
2007,06,25,02,55,9.30
2007,06,25,02,56,9.20
2007,06,25,02,57,9.20
2007,06,25,02,58,9.20
2007,06,25,02,59,9.20
2007,06,25,03,00,9.10
2007,06,25,03,01,9.00
2007,06,25,03,02,9.00
2007,06,25,03,03,8.90
2007,06,25,03,04,8.90
2007,06,25,03,05,8.90
2007,06,25,03,06,8.80
2007,06,25,03,07,8.70
2007,06,25,03,08,8.70
2007,06,25,03,09,8.70
2007,06,25,03,10,8.60
2007,06,25,03,11,8.60
2007,06,25,03,12,8.60
2007,06,25,03,13,8.50
2007,06,25,03,14,8.50
2007,06,25,03,15,8.50
2007,06,25,03,16,8.60
2007,06,25,03,17,8.60
2007,06,25,03,18,8.60
2007,06,25,03,19,8.60
2007,06,25,03,20,8.50
2007,06,25,03,21,8.50
2007,06,25,03,22,8.50
2007,06,25,03,23,8.50
2007,06,25,03,24,8.40
2007,06,25,03,25,8.40
2007,06,25,03,26,8.40
2007,06,25,03,27,8.30
2007,06,25,03,28,8.30
2007,06,25,03,29,8.20
2007,06,25,03,30,8.20
2007,06,25,03,31,8.20
2007,06,25,03,32,8.20
2007,06,25,03,33,8.20
2007,06,25,03,34,8.20
2007,06,25,03,35,8.20
2007,06,25,03,36,8.20
2007,06,25,03,37,8.20
2007,06,25,03,38,8.20
2007,06,25,03,39,8.30
2007,06,25,03,40,8.30
2007,06,25,03,41,8.30
2007,06,25,03,42,8.30
2007,06,25,03,43,8.30
2007,06,25,03,44,8.40
2007,06,25,03,45,8.40
2007,06,25,03,46,8.40
2007,06,25,03,47,8.40
2007,06,25,03,48,8.40
2007,06,25,03,49,8.40
2007,06,25,03,50,8.40
2007,06,25,03,51,8.40
2007,06,25,03,52,8.40
2007,06,25,03,53,8.40
2007,06,25,03,54,8.40
2007,06,25,03,55,8.30
2007,06,25,03,56,8.30
2007,06,25,03,57,8.30
2007,06,25,03,58,8.30
2007,06,25,03,59,8.30
2007,06,25,04,00,8.40
2007,06,25,04,01,8.30
2007,06,25,04,02,8.40
2007,06,25,04,03,8.40
2007,06,25,04,04,8.50
2007,06,25,04,05,8.50
2007,06,25,04,06,8.50
2007,06,25,04,07,8.60
2007,06,25,04,08,8.60
2007,06,25,04,09,8.60
2007,06,25,04,10,8.70
2007,06,25,04,11,8.70
2007,06,25,04,12,8.70
2007,06,25,04,13,8.70
2007,06,25,04,14,8.70
2007,06,25,04,15,8.70
2007,06,25,04,16,8.80
2007,06,25,04,17,8.80
2007,06,25,04,18,8.80
2007,06,25,04,19,8.90
2007,06,25,04,20,8.90
2007,06,25,04,21,8.90
2007,06,25,04,22,8.90
2007,06,25,04,23,8.90
2007,06,25,04,24,8.90
2007,06,25,04,25,8.90
2007,06,25,04,26,8.90
2007,06,25,04,27,8.90
2007,06,25,04,28,8.90
2007,06,25,04,29,8.90
2007,06,25,04,30,8.90
2007,06,25,04,31,9.00
2007,06,25,04,32,9.00
2007,06,25,04,33,9.00
2007,06,25,04,34,9.00
2007,06,25,04,35,9.00
2007,06,25,04,36,9.00
2007,06,25,04,37,9.00
2007,06,25,04,38,9.00
2007,06,25,04,39,9.10
2007,06,25,04,40,9.10
2007,06,25,04,41,9.10
2007,06,25,04,42,9.10
2007,06,25,04,43,9.10
2007,06,25,04,44,9.10
2007,06,25,04,45,9.10
2007,06,25,04,46,9.20
2007,06,25,04,47,9.20
2007,06,25,04,48,9.20
2007,06,25,04,49,9.20
2007,06,25,04,50,9.20
2007,06,25,04,51,9.20
2007,06,25,04,52,9.20
2007,06,25,04,53,9.20
2007,06,25,04,54,9.20
2007,06,25,04,55,9.20
2007,06,25,04,56,9.20
2007,06,25,04,57,9.20
2007,06,25,04,58,9.20
2007,06,25,04,59,9.20
2007,06,25,05,00,9.20
2007,06,25,05,01,9.20
2007,06,25,05,02,9.20
2007,06,25,05,03,9.20
2007,06,25,05,04,9.20
2007,06,25,05,05,9.20
2007,06,25,05,06,9.20
2007,06,25,05,07,9.20
2007,06,25,05,08,9.20
2007,06,25,05,09,9.20
2007,06,25,05,10,9.20
2007,06,25,05,11,9.20
2007,06,25,05,12,9.20
2007,06,25,05,13,9.20
2007,06,25,05,14,9.20
2007,06,25,05,15,9.20
2007,06,25,05,16,9.30
2007,06,25,05,17,9.30
2007,06,25,05,18,9.30
2007,06,25,05,19,9.30
2007,06,25,05,20,9.40
2007,06,25,05,21,9.40
2007,06,25,05,22,9.40
2007,06,25,05,23,9.40
2007,06,25,05,24,9.40
2007,06,25,05,25,9.40
2007,06,25,05,26,9.40
2007,06,25,05,27,9.40
2007,06,25,05,28,9.50
2007,06,25,05,29,9.50
2007,06,25,05,30,9.50
2007,06,25,05,31,9.50
2007,06,25,05,32,9.60
2007,06,25,05,33,9.60
2007,06,25,05,34,9.60
2007,06,25,05,35,9.60
2007,06,25,05,36,9.70
2007,06,25,05,37,9.70
2007,06,25,05,38,9.70
2007,06,25,05,39,9.70
2007,06,25,05,40,9.70
2007,06,25,05,41,9.70
2007,06,25,05,42,9.70
2007,06,25,05,43,9.70
2007,06,25,05,44,9.70
2007,06,25,05,45,9.70
2007,06,25,05,46,9.70
2007,06,25,05,47,9.70
2007,06,25,05,48,9.70
2007,06,25,05,49,9.70
2007,06,25,05,50,9.70
2007,06,25,05,51,9.70
2007,06,25,05,52,9.70
2007,06,25,05,53,9.70
2007,06,25,05,54,9.70
2007,06,25,05,55,9.70
2007,06,25,05,56,9.70
2007,06,25,05,57,9.70
2007,06,25,05,58,9.70
2007,06,25,05,59,9.70
2007,06,25,06,00,9.70
2007,06,25,06,01,9.70
2007,06,25,06,02,9.70
2007,06,25,06,03,9.70
2007,06,25,06,04,9.70
2007,06,25,06,05,9.70
2007,06,25,06,06,9.60
2007,06,25,06,07,9.60
2007,06,25,06,08,9.60
2007,06,25,06,09,9.60
2007,06,25,06,10,9.60
2007,06,25,06,11,9.60
2007,06,25,06,12,9.60
2007,06,25,06,13,9.60
2007,06,25,06,14,9.60
2007,06,25,06,15,9.60
2007,06,25,06,16,9.60
2007,06,25,06,17,9.60
2007,06,25,06,18,9.60
2007,06,25,06,19,9.60
2007,06,25,06,20,9.60
2007,06,25,06,21,9.60
2007,06,25,06,22,9.60
2007,06,25,06,23,9.60
2007,06,25,06,24,9.60
2007,06,25,06,25,9.60
2007,06,25,06,26,9.70
2007,06,25,06,27,9.70
2007,06,25,06,28,9.70
2007,06,25,06,29,9.70
2007,06,25,06,30,9.70
2007,06,25,06,31,9.70
2007,06,25,06,32,9.70
2007,06,25,06,33,9.80
2007,06,25,06,34,9.80
2007,06,25,06,35,9.80
2007,06,25,06,36,9.80
2007,06,25,06,37,9.90
2007,06,25,06,38,9.90
2007,06,25,06,39,9.90
2007,06,25,06,40,9.90
2007,06,25,06,41,9.90
2007,06,25,06,42,9.90
2007,06,25,06,43,9.90
2007,06,25,06,44,9.90
2007,06,25,06,45,9.90
2007,06,25,06,46,9.90
2007,06,25,06,47,9.90
2007,06,25,06,48,9.90
2007,06,25,06,49,10.00
2007,06,25,06,50,10.10
2007,06,25,06,51,10.10
2007,06,25,06,52,10.10
2007,06,25,06,53,10.10
2007,06,25,06,54,10.10
2007,06,25,06,55,10.10
2007,06,25,06,56,10.10
2007,06,25,06,57,10.10
2007,06,25,06,58,10.20
2007,06,25,06,59,10.20
2007,06,25,07,00,10.20
2007,06,25,07,01,10.20
2007,06,25,07,02,10.30
2007,06,25,07,03,10.30
2007,06,25,07,04,10.30
2007,06,25,07,05,10.30
2007,06,25,07,06,10.30
2007,06,25,07,07,10.40
2007,06,25,07,08,10.40
2007,06,25,07,09,10.40
2007,06,25,07,10,10.40
2007,06,25,07,11,10.40
2007,06,25,07,12,10.40
2007,06,25,07,13,10.40
2007,06,25,07,14,10.40
2007,06,25,07,15,10.50
2007,06,25,07,16,10.60
2007,06,25,07,17,10.60
2007,06,25,07,18,10.60
2007,06,25,07,19,10.60
2007,06,25,07,20,10.60
2007,06,25,07,21,10.60
2007,06,25,07,22,10.70
2007,06,25,07,23,10.70
2007,06,25,07,24,10.70
2007,06,25,07,25,10.70
2007,06,25,07,26,10.80
2007,06,25,07,27,10.80
2007,06,25,07,28,10.90
2007,06,25,07,29,10.90
2007,06,25,07,30,10.90
2007,06,25,07,31,10.90
2007,06,25,07,32,10.90
2007,06,25,07,33,11.00
2007,06,25,07,34,11.10
2007,06,25,07,35,11.10
2007,06,25,07,36,11.10
2007,06,25,07,37,11.10
2007,06,25,07,38,11.20
2007,06,25,07,39,11.20
2007,06,25,07,40,11.20
2007,06,25,07,41,11.30
2007,06,25,07,42,11.30
2007,06,25,07,43,11.40
2007,06,25,07,44,11.40
2007,06,25,07,45,11.40
2007,06,25,07,46,11.40
2007,06,25,07,47,11.40
2007,06,25,07,48,11.50
2007,06,25,07,49,11.60
2007,06,25,07,50,11.60
2007,06,25,07,51,11.60
2007,06,25,07,52,11.60
2007,06,25,07,53,11.70
2007,06,25,07,54,11.80
2007,06,25,07,55,11.90
2007,06,25,07,56,12.00
2007,06,25,07,57,12.10
2007,06,25,07,58,12.20
2007,06,25,07,59,12.30
2007,06,25,08,00,12.30
2007,06,25,08,01,12.40
2007,06,25,08,02,12.40
2007,06,25,08,03,12.50
2007,06,25,08,04,12.60
2007,06,25,08,05,12.70
2007,06,25,08,06,12.80
2007,06,25,08,07,12.80
2007,06,25,08,08,12.80
2007,06,25,08,09,12.80
2007,06,25,08,10,12.60
2007,06,25,08,11,12.60
2007,06,25,08,12,12.60
2007,06,25,08,13,12.50
2007,06,25,08,14,12.60
2007,06,25,08,15,12.60
2007,06,25,08,16,12.60
2007,06,25,08,17,12.60
2007,06,25,08,18,12.60
2007,06,25,08,19,12.60
2007,06,25,08,20,12.60
2007,06,25,08,21,12.60
2007,06,25,08,22,12.50
2007,06,25,08,23,12.50
2007,06,25,08,24,12.60
2007,06,25,08,25,12.70
2007,06,25,08,26,12.90
2007,06,25,08,27,13.00
2007,06,25,08,28,13.10
2007,06,25,08,29,13.10
2007,06,25,08,30,13.20
2007,06,25,08,31,13.20
2007,06,25,08,32,13.30
2007,06,25,08,33,13.30
2007,06,25,08,34,13.30
2007,06,25,08,35,13.30
2007,06,25,08,36,13.40
2007,06,25,08,37,13.40
2007,06,25,08,38,13.40
2007,06,25,08,39,13.30
2007,06,25,08,40,13.30
2007,06,25,08,41,13.40
2007,06,25,08,42,13.40
2007,06,25,08,43,13.50
2007,06,25,08,44,13.50
2007,06,25,08,45,13.50
2007,06,25,08,46,13.40
2007,06,25,08,47,13.40
2007,06,25,08,48,13.50
2007,06,25,08,49,13.50
2007,06,25,08,50,13.60
2007,06,25,08,51,13.60
2007,06,25,08,52,13.70
2007,06,25,08,53,13.80
2007,06,25,08,54,13.80
2007,06,25,08,55,13.80
2007,06,25,08,56,13.80
2007,06,25,08,57,13.80
2007,06,25,08,58,13.90
2007,06,25,08,59,13.90
2007,06,25,09,00,13.90
2007,06,25,09,01,13.80
2007,06,25,09,02,13.70
2007,06,25,09,03,13.70
2007,06,25,09,04,13.70
2007,06,25,09,05,13.70
2007,06,25,09,06,13.70
2007,06,25,09,07,13.60
2007,06,25,09,08,13.60
2007,06,25,09,09,13.60
2007,06,25,09,10,13.50
2007,06,25,09,11,13.50
2007,06,25,09,12,13.60
2007,06,25,09,13,13.70
2007,06,25,09,14,13.80
2007,06,25,09,15,13.90
2007,06,25,09,16,13.90
2007,06,25,09,17,14.00
2007,06,25,09,18,14.20
2007,06,25,09,19,14.30
2007,06,25,09,20,14.30
2007,06,25,09,21,14.50
2007,06,25,09,22,14.60
2007,06,25,09,23,14.60
2007,06,25,09,24,14.50
2007,06,25,09,25,14.40
2007,06,25,09,26,14.40
2007,06,25,09,27,14.40
2007,06,25,09,28,14.40
2007,06,25,09,29,14.50
2007,06,25,09,30,14.70
2007,06,25,09,31,14.80
2007,06,25,09,32,14.90
2007,06,25,09,33,15.10
2007,06,25,09,34,15.00
2007,06,25,09,35,15.00
2007,06,25,09,36,15.00
2007,06,25,09,37,15.00
2007,06,25,09,38,15.00
2007,06,25,09,39,15.10
2007,06,25,09,40,15.10
2007,06,25,09,41,15.20
2007,06,25,09,42,15.20
2007,06,25,09,43,15.30
2007,06,25,09,44,15.50
2007,06,25,09,45,15.50
2007,06,25,09,46,15.50
2007,06,25,09,47,15.50
2007,06,25,09,48,15.60
2007,06,25,09,49,15.60
2007,06,25,09,50,15.60
2007,06,25,09,51,15.60
2007,06,25,09,52,15.70
2007,06,25,09,53,15.80
2007,06,25,09,54,15.80
2007,06,25,09,55,15.80
2007,06,25,09,56,15.80
2007,06,25,09,57,15.50
2007,06,25,09,58,15.20
2007,06,25,09,59,15.00
2007,06,25,10,00,14.80
2007,06,25,10,01,14.70
2007,06,25,10,02,14.60
2007,06,25,10,03,14.40
2007,06,25,10,04,14.20
2007,06,25,10,05,14.00
2007,06,25,10,06,13.80
2007,06,25,10,07,13.70
2007,06,25,10,08,13.60
2007,06,25,10,09,13.60
2007,06,25,10,10,13.40
2007,06,25,10,11,13.30
2007,06,25,10,12,13.10
2007,06,25,10,13,12.90
2007,06,25,10,14,12.80
2007,06,25,10,15,12.60
2007,06,25,10,16,12.60
2007,06,25,10,17,12.60
2007,06,25,10,18,12.50
2007,06,25,10,19,12.50
2007,06,25,10,20,12.40
2007,06,25,10,21,12.40
2007,06,25,10,22,12.40
2007,06,25,10,23,12.40
2007,06,25,10,24,12.30
2007,06,25,10,25,12.30
2007,06,25,10,26,12.20
2007,06,25,10,27,12.10
2007,06,25,10,28,12.00
2007,06,25,10,29,12.00
2007,06,25,10,30,11.90
2007,06,25,10,31,11.90
2007,06,25,10,32,12.00
2007,06,25,10,33,12.00
2007,06,25,10,34,12.00
2007,06,25,10,35,12.00
2007,06,25,10,36,12.00
2007,06,25,10,37,12.00
2007,06,25,10,38,12.00
2007,06,25,10,39,11.90
2007,06,25,10,40,11.90
2007,06,25,10,41,11.90
2007,06,25,10,42,11.90
2007,06,25,10,43,11.80
2007,06,25,10,44,11.80
2007,06,25,10,45,11.80
2007,06,25,10,46,11.80
2007,06,25,10,47,11.80
2007,06,25,10,48,11.80
2007,06,25,10,49,11.80
2007,06,25,10,50,11.70
2007,06,25,10,51,11.60
2007,06,25,10,52,11.60
2007,06,25,10,53,11.60
2007,06,25,10,54,11.60
2007,06,25,10,55,11.60
2007,06,25,10,56,11.60
2007,06,25,10,57,11.60
2007,06,25,10,58,11.60
2007,06,25,10,59,11.60
2007,06,25,11,00,11.60
2007,06,25,11,01,11.60
2007,06,25,11,02,11.60
2007,06,25,11,03,11.60
2007,06,25,11,04,11.70
2007,06,25,11,05,11.70
2007,06,25,11,06,11.80
2007,06,25,11,07,11.80
2007,06,25,11,08,11.90
2007,06,25,11,09,12.00
2007,06,25,11,10,12.10
2007,06,25,11,11,12.20
2007,06,25,11,12,12.20
2007,06,25,11,13,12.20
2007,06,25,11,14,12.20
2007,06,25,11,15,12.20
2007,06,25,11,16,12.20
2007,06,25,11,17,12.20
2007,06,25,11,18,12.30
2007,06,25,11,19,12.30
2007,06,25,11,20,12.30
2007,06,25,11,21,12.10
2007,06,25,11,22,12.10
2007,06,25,11,23,12.00
2007,06,25,11,24,11.90
2007,06,25,11,25,11.90
2007,06,25,11,26,11.90
2007,06,25,11,27,11.90
2007,06,25,11,28,11.80
2007,06,25,11,29,11.90
2007,06,25,11,30,11.90
2007,06,25,11,31,11.80
2007,06,25,11,32,11.80
2007,06,25,11,33,11.80
2007,06,25,11,34,11.80
2007,06,25,11,35,11.90
2007,06,25,11,36,11.90
2007,06,25,11,37,11.80
2007,06,25,11,38,11.80
2007,06,25,11,39,11.90
2007,06,25,11,40,12.00
2007,06,25,11,41,12.00
2007,06,25,11,42,12.00
2007,06,25,11,43,12.10
2007,06,25,11,44,12.10
2007,06,25,11,45,12.20
2007,06,25,11,46,12.30
2007,06,25,11,47,12.40
2007,06,25,11,48,12.50
2007,06,25,11,49,12.60
2007,06,25,11,50,12.60
2007,06,25,11,51,12.60
2007,06,25,11,52,12.50
2007,06,25,11,53,12.40
2007,06,25,11,54,12.40
2007,06,25,11,55,12.30
2007,06,25,11,56,12.30
2007,06,25,11,57,12.30
2007,06,25,11,58,12.40
2007,06,25,11,59,12.40
2007,06,25,12,00,12.50
2007,06,25,12,01,12.60
2007,06,25,12,02,12.60
2007,06,25,12,03,12.60
2007,06,25,12,04,12.50
2007,06,25,12,05,12.50
2007,06,25,12,06,12.50
2007,06,25,12,07,12.50
2007,06,25,12,08,12.50
2007,06,25,12,09,12.60
2007,06,25,12,10,12.60
2007,06,25,12,11,12.60
2007,06,25,12,12,12.60
2007,06,25,12,13,12.60
2007,06,25,12,14,12.60
2007,06,25,12,15,12.60
2007,06,25,12,16,12.60
2007,06,25,12,17,12.60
2007,06,25,12,18,12.60
2007,06,25,12,19,12.70
2007,06,25,12,20,12.80
2007,06,25,12,21,12.70
2007,06,25,12,22,12.70
2007,06,25,12,23,12.70
2007,06,25,12,24,12.70
2007,06,25,12,25,12.80
2007,06,25,12,26,12.90
2007,06,25,12,27,13.00
2007,06,25,12,28,13.10
2007,06,25,12,29,13.10
2007,06,25,12,30,13.10
2007,06,25,12,31,13.10
2007,06,25,12,32,13.10
2007,06,25,12,33,13.10
2007,06,25,12,34,13.10
2007,06,25,12,35,13.20
2007,06,25,12,36,13.30
2007,06,25,12,37,13.40
2007,06,25,12,38,13.50
2007,06,25,12,39,13.40
2007,06,25,12,40,13.40
2007,06,25,12,41,13.30
2007,06,25,12,42,13.30
2007,06,25,12,43,13.30
2007,06,25,12,44,13.30
2007,06,25,12,45,13.20
2007,06,25,12,46,13.20
2007,06,25,12,47,13.30
2007,06,25,12,48,13.20
2007,06,25,12,49,13.10
2007,06,25,12,50,13.10
2007,06,25,12,51,13.10
2007,06,25,12,52,13.20
2007,06,25,12,53,13.30
2007,06,25,12,54,13.40
2007,06,25,12,55,13.50
2007,06,25,12,56,13.50
2007,06,25,12,57,13.70
2007,06,25,12,58,13.70
2007,06,25,12,59,13.70
2007,06,25,13,00,13.60
2007,06,25,13,01,13.60
2007,06,25,13,02,13.70
2007,06,25,13,03,13.70
2007,06,25,13,04,13.80
2007,06,25,13,05,13.90
2007,06,25,13,06,13.90
2007,06,25,13,07,14.10
2007,06,25,13,08,14.20
2007,06,25,13,09,14.20
2007,06,25,13,10,14.30
2007,06,25,13,11,14.50
2007,06,25,13,12,14.40
2007,06,25,13,13,14.40
2007,06,25,13,14,14.30
2007,06,25,13,15,14.40
2007,06,25,13,16,14.50
2007,06,25,13,17,14.60
2007,06,25,13,18,14.70
2007,06,25,13,19,14.80
2007,06,25,13,20,14.80
2007,06,25,13,21,14.80
2007,06,25,13,22,14.80
2007,06,25,13,23,15.00
2007,06,25,13,24,15.00
2007,06,25,13,25,15.10
2007,06,25,13,26,15.10
2007,06,25,13,27,15.10
2007,06,25,13,28,14.90
2007,06,25,13,29,14.70
2007,06,25,13,30,14.70
2007,06,25,13,31,14.80
2007,06,25,13,32,14.90
2007,06,25,13,33,14.90
2007,06,25,13,34,14.80
2007,06,25,13,35,14.80
2007,06,25,13,36,14.90
2007,06,25,13,37,15.00
2007,06,25,13,38,15.00
2007,06,25,13,39,15.10
2007,06,25,13,40,15.10
2007,06,25,13,41,15.20
2007,06,25,13,42,15.20
2007,06,25,13,43,15.30
2007,06,25,13,44,15.30
2007,06,25,13,45,15.20
2007,06,25,13,46,15.20
2007,06,25,13,47,15.20
2007,06,25,13,48,15.10
2007,06,25,13,49,15.00
2007,06,25,13,50,15.00
2007,06,25,13,51,15.10
2007,06,25,13,52,15.20
2007,06,25,13,53,15.10
2007,06,25,13,54,15.10
2007,06,25,13,55,15.00
2007,06,25,13,56,14.90
2007,06,25,13,57,14.90
2007,06,25,13,58,15.00
2007,06,25,13,59,15.10
2007,06,25,14,00,15.20
2007,06,25,14,01,15.10
2007,06,25,14,02,14.90
2007,06,25,14,03,14.70
2007,06,25,14,04,14.50
2007,06,25,14,05,14.30
2007,06,25,14,06,14.40
2007,06,25,14,07,14.50
2007,06,25,14,08,14.70
2007,06,25,14,09,15.00
2007,06,25,14,10,15.10
2007,06,25,14,11,15.20
2007,06,25,14,12,15.20
2007,06,25,14,13,15.30
2007,06,25,14,14,15.40
2007,06,25,14,15,15.50
2007,06,25,14,16,15.50
2007,06,25,14,17,15.60
2007,06,25,14,18,15.60
2007,06,25,14,19,15.60
2007,06,25,14,20,15.80
2007,06,25,14,21,15.80
2007,06,25,14,22,15.70
2007,06,25,14,23,15.60
2007,06,25,14,24,15.70
2007,06,25,14,25,15.80
2007,06,25,14,26,16.00
2007,06,25,14,27,16.10
2007,06,25,14,28,16.20
2007,06,25,14,29,16.30
2007,06,25,14,30,16.30
2007,06,25,14,31,16.30
2007,06,25,14,32,16.40
2007,06,25,14,33,16.20
2007,06,25,14,34,16.20
2007,06,25,14,35,16.10
2007,06,25,14,36,16.10
2007,06,25,14,37,16.10
2007,06,25,14,38,15.90
2007,06,25,14,39,15.80
2007,06,25,14,40,15.80
2007,06,25,14,41,15.80
2007,06,25,14,42,15.80
2007,06,25,14,43,15.80
2007,06,25,14,44,15.90
2007,06,25,14,45,16.00
2007,06,25,14,46,16.10
2007,06,25,14,47,16.20
2007,06,25,14,48,16.30
2007,06,25,14,49,16.20
2007,06,25,14,50,16.00
2007,06,25,14,51,15.90
2007,06,25,14,52,15.70
2007,06,25,14,53,15.60
2007,06,25,14,54,15.50
2007,06,25,14,55,15.60
2007,06,25,14,56,15.60
2007,06,25,14,57,15.50
2007,06,25,14,58,15.50
2007,06,25,14,59,15.60
2007,06,25,15,00,15.50
2007,06,25,15,01,15.60
2007,06,25,15,02,15.60
2007,06,25,15,03,15.70
2007,06,25,15,04,15.80
2007,06,25,15,05,15.80
2007,06,25,15,06,15.80
2007,06,25,15,07,15.80
2007,06,25,15,08,15.90
2007,06,25,15,09,16.00
2007,06,25,15,10,16.10
2007,06,25,15,11,16.00
2007,06,25,15,12,15.90
2007,06,25,15,13,15.90
2007,06,25,15,14,16.00
2007,06,25,15,15,16.10
2007,06,25,15,16,16.20
2007,06,25,15,17,16.30
2007,06,25,15,18,16.30
2007,06,25,15,19,16.40
2007,06,25,15,20,16.30
2007,06,25,15,21,16.20
2007,06,25,15,22,16.10
2007,06,25,15,23,16.10
2007,06,25,15,24,16.10
2007,06,25,15,25,16.10
2007,06,25,15,26,16.00
2007,06,25,15,27,15.90
2007,06,25,15,28,15.90
2007,06,25,15,29,15.80
2007,06,25,15,30,15.80
2007,06,25,15,31,15.80
2007,06,25,15,32,15.70
2007,06,25,15,33,15.70
2007,06,25,15,34,15.70
2007,06,25,15,35,15.80
2007,06,25,15,36,15.70
2007,06,25,15,37,15.80
2007,06,25,15,38,15.90
2007,06,25,15,39,16.10
2007,06,25,15,40,16.20
2007,06,25,15,41,16.30
2007,06,25,15,42,16.40
2007,06,25,15,43,16.40
2007,06,25,15,44,16.40
2007,06,25,15,45,16.40
2007,06,25,15,46,16.40
2007,06,25,15,47,16.30
2007,06,25,15,48,16.30
2007,06,25,15,49,16.20
2007,06,25,15,50,16.20
2007,06,25,15,51,16.10
2007,06,25,15,52,16.10
2007,06,25,15,53,16.20
2007,06,25,15,54,16.30
2007,06,25,15,55,16.30
2007,06,25,15,56,16.30
2007,06,25,15,57,16.30
2007,06,25,15,58,16.40
2007,06,25,15,59,16.40
2007,06,25,16,00,16.30
2007,06,25,16,01,16.30
2007,06,25,16,02,16.50
2007,06,25,16,03,16.60
2007,06,25,16,04,16.70
2007,06,25,16,05,16.70
2007,06,25,16,06,16.70
2007,06,25,16,07,16.70
2007,06,25,16,08,16.70
2007,06,25,16,09,16.90
2007,06,25,16,10,17.00
2007,06,25,16,11,17.10
2007,06,25,16,12,17.30
2007,06,25,16,13,17.40
2007,06,25,16,14,17.50
2007,06,25,16,15,17.70
2007,06,25,16,16,17.70
2007,06,25,16,17,17.80
2007,06,25,16,18,17.90
2007,06,25,16,19,17.70
2007,06,25,16,20,17.50
2007,06,25,16,21,17.40
2007,06,25,16,22,17.30
2007,06,25,16,23,17.30
2007,06,25,16,24,17.20
2007,06,25,16,25,17.00
2007,06,25,16,26,16.90
2007,06,25,16,27,17.00
2007,06,25,16,28,16.90
2007,06,25,16,29,16.90
2007,06,25,16,30,16.90
2007,06,25,16,31,16.90
2007,06,25,16,32,17.00
2007,06,25,16,33,17.10
2007,06,25,16,34,17.20
2007,06,25,16,35,17.20
2007,06,25,16,36,17.30
2007,06,25,16,37,17.30
2007,06,25,16,38,17.30
2007,06,25,16,39,17.30
2007,06,25,16,40,17.10
2007,06,25,16,41,16.90
2007,06,25,16,42,16.70
2007,06,25,16,43,16.70
2007,06,25,16,44,16.70
2007,06,25,16,45,16.80
2007,06,25,16,46,16.80
2007,06,25,16,47,16.60
2007,06,25,16,48,16.50
2007,06,25,16,49,16.40
2007,06,25,16,50,16.40
2007,06,25,16,51,16.40
2007,06,25,16,52,16.40
2007,06,25,16,53,16.60
2007,06,25,16,54,16.70
2007,06,25,16,55,16.90
2007,06,25,16,56,17.00
2007,06,25,16,57,17.30
2007,06,25,16,58,17.30
2007,06,25,16,59,17.30
2007,06,25,17,00,17.40
2007,06,25,17,01,17.40
2007,06,25,17,02,17.40
2007,06,25,17,03,17.40
2007,06,25,17,04,17.30
2007,06,25,17,05,17.10
2007,06,25,17,06,16.90
2007,06,25,17,07,16.70
2007,06,25,17,08,16.70
2007,06,25,17,09,16.60
2007,06,25,17,10,16.60
2007,06,25,17,11,16.70
2007,06,25,17,12,16.60
2007,06,25,17,13,16.60
2007,06,25,17,14,16.60
2007,06,25,17,15,16.70
2007,06,25,17,16,16.70
2007,06,25,17,17,16.70
2007,06,25,17,18,16.70
2007,06,25,17,19,16.70
2007,06,25,17,20,16.70
2007,06,25,17,21,16.80
2007,06,25,17,22,16.90
2007,06,25,17,23,17.00
2007,06,25,17,24,17.00
2007,06,25,17,25,17.00
2007,06,25,17,26,17.00
2007,06,25,17,27,17.00
2007,06,25,17,28,17.00
2007,06,25,17,29,16.80
2007,06,25,17,30,16.70
2007,06,25,17,31,16.70
2007,06,25,17,32,16.70
2007,06,25,17,33,16.80
2007,06,25,17,34,17.00
2007,06,25,17,35,17.00
2007,06,25,17,36,17.00
2007,06,25,17,37,16.90